User: anonymous   Login
Location: Newark
(48.9886°N, 1.2358°E)
Time: 14:45:50
(UTC+00:00)
Language:

Tiros 1 despin weight - Orbit

View from above orbital plane
View from above orbital plane
View from above satellite
View from above satellite

Ground track
Ground track

The orbit data is extracted from the following two-line orbital elements,

1   115U 60002D   19325.06512395 -.00000009  00000-0  26178-4 0  9994
2   115  48.1655 201.0386 0034396  45.5343 314.8374 14.83510180181884
Epoch (UTC): 21 November 2019 01:33:46
Eccentricity: 0.0034396
inclination: 48.1655°
perigee height: 594 km
apogee height: 642 km
right ascension of ascending node: 201.0386°
argument of perigee: 45.5343°
revolutions per day: 14.83510180
mean anomaly at epoch: 314.8374°
orbit number at epoch: 18188

The dashed part of the orbit path shows where the satellite is in the earth's shadow,  

DLR